QPF
0.00 0.00 0.01 0.00 0.00 0.00 0.00 0.00 0.00 0.00 0.00 0.00 0.00 0.00 0.00 0.00 0.00 0.00 0.00 0.01 0.01 0.01 0.01 0.02 0.03 0.03 0.02 0.02 0.03 0.03 0.03 0.03 0.03 0.03 0.04 0.04 0.05 0.08 0.08 0.06 0.05 0.04 0.04 0.05
0.01 0.01 0.00 0.00 0.00 0.00 0.00 0.00 0.00 0.00 0.00 0.00 0.00 0.00 0.00 0.00 0.00 0.00 0.00 0.00 0.01 0.02 0.02 0.02 0.03 0.03 0.03 0.03 0.03 0.03 0.03 0.03 0.03 0.03 0.03 0.03 0.04 0.06 0.06 0.05 0.04 0.04 0.03 0.03
0.01 0.01 0.00 0.00 0.00 0.00 0.00 0.00 0.00 0.00 0.00 0.00 0.01 0.01 0.00 0.00 0.00 0.00 0.00 0.00 0.00 0.01 0.01 0.01 0.02 0.02 0.03 0.03 0.03 0.03 0.04 0.03 0.03 0.03 0.03 0.03 0.04 0.04 0.05 0.05 0.04 0.03 0.02 0.02
0.01 0.00 0.00 0.00 0.00 0.01 0.01 0.00 0.00 0.00 0.00 0.01 0.01 0.01 0.00 0.00 0.00 0.00 0.00 0.00 0.00 0.00 0.01 0.01 0.01 0.01 0.02 0.03 0.02 0.02 0.03 0.03 0.03 0.02 0.02 0.02 0.03 0.03 0.04 0.04 0.03 0.03 0.02 0.02
0.01 0.00 0.00 0.00 0.00 0.00 0.00 0.00 0.00 0.00 0.01 0.01 0.01 0.02 0.00 0.00 0.00 0.00 0.00 0.00 0.00 0.00 0.00 0.01 0.01 0.01 0.01 0.02 0.02 0.02 0.02 0.02 0.03 0.02 0.02 0.02 0.02 0.02 0.02 0.03 0.03 0.02 0.02 0.02
0.01 0.00 0.00 0.00 0.00 0.00 0.00 0.00 0.01 0.01 0.02 0.02 0.01 0.01 0.01 0.00 0.00 0.00 0.00 0.00 0.00 0.00 0.00 0.01 0.01 0.01 0.01 0.02 0.02 0.03 0.02 0.02 0.02 0.02 0.02 0.01 0.01 0.01 0.02 0.02 0.03 0.03 0.02 0.02
0.02 0.01 0.00 0.00 0.00 0.00 0.01 0.02 0.03 0.03 0.03 0.01 0.00 0.00 0.00 0.00 0.00 0.00 0.00 0.00 0.00 0.00 0.01 0.01 0.01 0.01 0.01 0.01 0.02 0.03 0.03 0.02 0.02 0.02 0.02 0.02 0.02 0.02 0.02 0.02 0.02 0.03 0.03 0.02
0.01 0.01 0.00 0.00 0.00 0.01 0.01 0.02 0.02 0.02 0.02 0.00 0.00 0.00 0.00 0.00 0.00 0.00 0.00 0.00 0.00 0.00 0.00 0.00 0.00 0.01 0.01 0.00 0.01 0.02 0.03 0.03 0.02 0.02 0.02 0.02 0.02 0.02 0.02 0.01 0.02 0.02 0.03 0.03
0.01 0.00 0.00 0.00 0.00 0.00 0.01 0.01 0.01 0.02 0.01 0.01 0.00 0.00 0.00 0.00 0.00 0.00 0.00 0.00 0.00 0.00 0.00 0.00 0.00 0.00 0.00 0.00 0.00 0.01 0.01 0.02 0.03 0.02 0.02 0.01 0.01 0.02 0.02 0.01 0.01 0.01 0.01 0.02
0.01 0.01 0.00 0.00 0.00 0.00 0.00 0.01 0.01 0.03 0.03 0.02 0.01 0.00 0.01 0.00 0.00 0.00 0.00 0.00 0.00 0.00 0.00 0.00 0.00 0.00 0.00 0.00 0.00 0.00 0.01 0.01 0.02 0.03 0.03 0.02 0.02 0.02 0.02 0.01 0.01 0.01 0.01 0.01
0.02 0.02 0.01 0.00 0.01 0.01 0.01 0.01 0.02 0.03 0.03 0.03 0.02 0.01 0.01 0.00 0.00 0.00 0.00 0.00 0.00 0.00 0.00 0.00 0.00 0.00 0.00 0.00 0.00 0.00 0.00 0.01 0.01 0.02 0.02 0.03 0.02 0.02 0.02 0.01 0.01 0.01 0.01 0.01
0.02 0.03 0.02 0.01 0.00 0.00 0.00 0.01 0.01 0.03 0.02 0.02 0.03 0.01 0.01 0.01 0.01 0.01 0.01 0.00 0.00 0.00 0.00 0.00 0.00 0.00 0.00 0.00 0.00 0.00 0.00 0.00 0.00 0.01 0.01 0.02 0.02 0.02 0.02 0.01 0.01 0.01 0.01 0.01
0.03 0.05 0.04 0.02 0.01 0.00 0.01 0.01 0.01 0.03 0.04 0.03 0.03 0.01 0.01 0.01 0.01 0.01 0.00 0.00 0.00 0.00 0.00 0.00 0.00 0.00 0.00 0.00 0.00 0.00 0.00 0.00 0.00 0.00 0.01 0.01 0.01 0.01 0.02 0.01 0.01 0.01 0.01 0.01
0.03 0.05 0.03 0.01 0.01 0.01 0.01 0.01 0.01 0.04 0.06 0.04 0.02 0.01 0.01 0.01 0.01 0.00 0.00 0.00 0.00 0.00 0.00 0.00 0.00 0.00 0.00 0.00 0.00 0.00 0.00 0.00 0.00 0.00 0.00 0.01 0.01 0.01 0.01 0.01 0.01 0.01 0.01 0.01
0.03 0.05 0.02 0.01 0.00 0.00 0.00 0.00 0.01 0.01 0.02 0.02 0.01 0.01 0.01 0.01 0.00 0.00 0.00 0.00 0.00 0.00 0.00 0.00 0.00 0.00 0.00 0.00 0.00 0.00 0.00 0.00 0.00 0.00 0.00 0.00 0.00 0.01 0.01 0.01 0.01 0.01 0.02 0.01
0.04 0.05 0.03 0.02 0.00 0.01 0.01 0.00 0.01 0.01 0.01 0.01 0.01 0.01 0.00 0.00 0.00 0.00 0.00 0.00 0.00 0.00 0.00 0.00 0.00 0.00 0.00 0.00 0.00 0.00 0.00 0.00 0.00 0.00 0.00 0.00 0.00 0.01 0.01 0.01 0.01 0.01 0.02 0.02
0.06 0.06 0.06 0.04 0.01 0.02 0.02 0.01 0.01 0.01 0.02 0.01 0.01 0.01 0.00 0.00 0.00 0.00 0.01 0.01 0.01 0.00 0.00 0.00 0.00 0.00 0.00 0.00 0.00 0.00 0.00 0.00 0.00 0.00 0.00 0.00 0.00 0.00 0.01 0.01 0.01 0.01 0.01 0.02
0.06 0.06 0.09 0.07 0.05 0.05 0.02 0.00 0.01 0.01 0.01 0.01 0.01 0.01 0.00 0.00 0.00 0.01 0.01 0.01 0.01 0.00 0.00 0.00 0.00 0.00 0.00 0.00 0.00 0.00 0.00 0.00 0.00 0.00 0.00 0.00 0.00 0.00 0.01 0.01 0.01 0.01 0.01 0.01
0.03 0.05 0.10 0.10 0.08 0.04 0.01 0.00 0.01 0.01 0.01 0.01 0.02 0.01 0.01 0.01 0.01 0.01 0.00 0.00 0.01 0.00 0.00 0.00 0.00 0.00 0.00 0.00 0.00 0.00 0.00 0.00 0.00 0.00 0.00 0.00 0.00 0.00 0.00 0.00 0.00 0.00 0.01 0.01
0.03 0.04 0.09 0.10 0.08 0.04 0.01 0.00 0.00 0.01 0.02 0.02 0.01 0.01 0.01 0.01 0.02 0.01 0.00 0.00 0.00 0.00 0.00 0.00 0.00 0.00 0.00 0.00 0.00 0.00 0.00 0.00 0.00 0.00 0.00 0.00 0.00 0.00 0.00 0.00 0.00 0.00 0.00 0.00
0.04 0.06 0.08 0.07 0.07 0.03 0.01 0.00 0.01 0.03 0.02 0.01 0.02 0.02 0.02 0.02 0.01 0.01 0.00 0.00 0.00 0.00 0.00 0.00 0.00 0.00 0.00 0.00 0.00 0.00 0.00 0.01 0.00 0.00 0.00 0.00 0.00 0.00 0.01 0.01 0.01 0.00 0.00 0.00
0.03 0.04 0.05 0.05 0.06 0.04 0.01 0.01 0.02 0.02 0.01 0.01 0.01 0.02 0.02 0.02 0.01 0.01 0.00 0.00 0.00 0.00 0.00 0.00 0.00 0.00 0.00 0.00 0.00 0.00 0.00 0.00 0.00 0.00 0.00 0.00 0.00 0.00 0.01 0.01 0.00 0.00 0.00 0.00
0.01 0.02 0.03 0.04 0.03 0.01 0.01 0.01 0.01 0.01 0.01 0.01 0.01 0.01 0.02 0.02 0.01 0.01 0.01 0.00 0.00 0.00 0.00 0.00 0.00 0.00 0.00 0.00 0.00 0.00 0.00 0.00 0.00 0.00 0.00 0.00 0.00 0.00 0.00 0.01 0.00 0.00 0.00 0.00
0.01 0.01 0.02 0.04 0.03 0.02 0.01 0.01 0.01 0.01 0.01 0.01 0.02 0.02 0.02 0.01 0.01 0.01 0.01 0.01 0.00 0.00 0.00 0.00 0.00 0.00 0.00 0.00 0.00 0.00 0.00 0.00 0.00 0.00 0.00 0.00 0.00 0.01 0.01 0.01 0.00 0.00 0.00 0.00
0.01 0.01 0.02 0.02 0.03 0.02 0.02 0.01 0.01 0.01 0.01 0.01 0.01 0.01 0.01 0.01 0.01 0.01 0.01 0.01 0.00 0.00 0.00 0.00 0.00 0.00 0.00 0.00 0.00 0.00 0.00 0.00 0.00 0.00 0.00 0.00 0.01 0.01 0.01 0.01 0.01 0.00 0.00 0.00
0.01 0.01 0.01 0.02 0.02 0.02 0.02 0.01 0.01 0.01 0.01 0.01 0.01 0.01 0.00 0.01 0.01 0.01 0.00 0.00 0.00 0.00 0.00 0.00 0.00 0.00 0.00 0.00 0.00 0.00 0.00 0.00 0.00 0.00 0.00 0.00 0.01 0.01 0.01 0.01 0.01 0.01 0.01 0.01
MSLP
1013.87 1013.61 1013.34 1013.13 1013.05 1013.15 1013.46 1013.98 1014.68 1015.48 1016.31 1017.11 1017.81 1018.38 1018.84 1019.22 1019.57 1019.96 1020.44 1021.02 1021.70 1022.45 1023.20 1023.86 1024.38 1024.70 1024.81 1024.75 1024.54 1024.28 1024.04 1023.90 1023.89 1024.02 1024.29 1024.63 1024.99 1025.30 1025.51 1025.61 1025.59 1025.47 1025.29 1025.10
1013.86 1013.51 1013.15 1012.88 1012.76 1012.85 1013.18 1013.73 1014.45 1015.28 1016.14 1016.93 1017.63 1018.19 1018.64 1019.02 1019.39 1019.82 1020.35 1021.01 1021.79 1022.62 1023.44 1024.17 1024.73 1025.09 1025.22 1025.15 1024.95 1024.68 1024.45 1024.31 1024.32 1024.48 1024.76 1025.13 1025.51 1025.84 1026.08 1026.19 1026.19 1026.08 1025.92 1025.74
1013.97 1013.55 1013.15 1012.84 1012.70 1012.78 1013.10 1013.64 1014.35 1015.15 1015.96 1016.71 1017.34 1017.86 1018.27 1018.64 1019.02 1019.50 1020.10 1020.84 1021.71 1022.64 1023.55 1024.36 1025.00 1025.40 1025.58 1025.54 1025.37 1025.13 1024.91 1024.79 1024.80 1024.96 1025.25 1025.61 1025.99 1026.33 1026.57 1026.70 1026.72 1026.64 1026.51 1026.35
1014.16 1013.74 1013.34 1013.04 1012.91 1012.98 1013.28 1013.78 1014.42 1015.13 1015.83 1016.46 1016.99 1017.41 1017.75 1018.08 1018.48 1018.98 1019.65 1020.49 1021.45 1022.48 1023.50 1024.41 1025.13 1025.62 1025.87 1025.91 1025.80 1025.60 1025.42 1025.32 1025.33 1025.49 1025.75 1026.09 1026.45 1026.77 1027.01 1027.15 1027.19 1027.15 1027.05 1026.93
1014.38 1014.02 1013.68 1013.43 1013.34 1013.42 1013.69 1014.12 1014.65 1015.22 1015.76 1016.22 1016.59 1016.88 1017.13 1017.42 1017.80 1018.34 1019.07 1019.99 1021.05 1022.19 1023.31 1024.32 1025.15 1025.75 1026.10 1026.23 1026.20 1026.09 1025.96 1025.89 1025.91 1026.05 1026.29 1026.59 1026.91 1027.20 1027.43 1027.57 1027.64 1027.63 1027.57 1027.50
1014.53 1014.29 1014.07 1013.92 1013.90 1014.01 1014.25 1014.60 1015.00 1015.39 1015.74 1016.00 1016.19 1016.34 1016.49 1016.73 1017.10 1017.67 1018.46 1019.46 1020.60 1021.83 1023.05 1024.16 1025.09 1025.79 1026.25 1026.50 1026.58 1026.56 1026.50 1026.48 1026.52 1026.65 1026.86 1027.12 1027.39 1027.65 1027.86 1028.01 1028.08 1028.11 1028.10 1028.07
1014.56 1014.47 1014.41 1014.40 1014.47 1014.63 1014.86 1015.12 1015.38 1015.60 1015.75 1015.82 1015.84 1015.85 1015.92 1016.12 1016.50 1017.11 1017.95 1019.01 1020.23 1021.52 1022.81 1023.99 1025.00 1025.79 1026.36 1026.71 1026.91 1026.99 1027.02 1027.06 1027.13 1027.27 1027.46 1027.68 1027.92 1028.14 1028.33 1028.47 1028.57 1028.62 1028.65 1028.66
1014.44 1014.53 1014.64 1014.79 1014.97 1015.19 1015.41 1015.60 1015.73 1015.78 1015.75 1015.66 1015.55 1015.47 1015.49 1015.68 1016.10 1016.76 1017.66 1018.78 1020.04 1021.37 1022.68 1023.90 1024.95 1025.80 1026.44 1026.89 1027.19 1027.37 1027.50 1027.61 1027.73 1027.89 1028.07 1028.28 1028.49 1028.68 1028.86 1028.99 1029.10 1029.17 1029.22 1029.27
1014.23 1014.47 1014.75 1015.05 1015.35 1015.62 1015.84 1015.96 1015.99 1015.90 1015.74 1015.52 1015.32 1015.20 1015.23 1015.47 1015.95 1016.68 1017.65 1018.81 1020.10 1021.43 1022.74 1023.94 1024.99 1025.85 1026.54 1027.05 1027.43 1027.71 1027.92 1028.11 1028.29 1028.49 1028.68 1028.89 1029.08 1029.27 1029.43 1029.56 1029.67 1029.76 1029.83 1029.88
1014.00 1014.39 1014.81 1015.24 1015.62 1015.93 1016.13 1016.20 1016.12 1015.93 1015.67 1015.38 1015.15 1015.05 1015.13 1015.45 1016.03 1016.86 1017.91 1019.11 1020.41 1021.72 1022.98 1024.12 1025.13 1025.97 1026.66 1027.21 1027.64 1027.99 1028.29 1028.56 1028.81 1029.05 1029.28 1029.49 1029.69 1029.87 1030.03 1030.16 1030.27 1030.36 1030.44 1030.49
1013.91 1014.39 1014.91 1015.42 1015.85 1016.17 1016.33 1016.32 1016.15 1015.87 1015.53 1015.21 1014.99 1014.95 1015.12 1015.57 1016.27 1017.21 1018.33 1019.58 1020.87 1022.14 1023.33 1024.41 1025.34 1026.14 1026.80 1027.36 1027.83 1028.24 1028.61 1028.95 1029.26 1029.55 1029.82 1030.06 1030.27 1030.46 1030.62 1030.75 1030.86 1030.95 1031.03 1031.08
1014.05 1014.59 1015.16 1015.70 1016.12 1016.40 1016.48 1016.37 1016.10 1015.73 1015.33 1015.00 1014.81 1014.83 1015.12 1015.69 1016.53 1017.58 1018.78 1020.06 1021.34 1022.58 1023.70 1024.70 1025.56 1026.30 1026.94 1027.49 1027.99 1028.45 1028.88 1029.28 1029.65 1029.99 1030.30 1030.57 1030.80 1031.00 1031.16 1031.30 1031.42 1031.51 1031.58 1031.62
1014.47 1015.04 1015.61 1016.12 1016.50 1016.68 1016.65 1016.42 1016.03 1015.55 1015.09 1014.73 1014.56 1014.66 1015.04 1015.73 1016.68 1017.83 1019.10 1020.41 1021.70 1022.90 1023.97 1024.91 1025.72 1026.43 1027.04 1027.60 1028.13 1028.63 1029.11 1029.56 1029.98 1030.37 1030.71 1031.00 1031.25 1031.46 1031.64 1031.78 1031.90 1032.00 1032.07 1032.12
1015.17 1015.73 1016.26 1016.70 1016.98 1017.03 1016.86 1016.48 1015.94 1015.36 1014.81 1014.42 1014.26 1014.39 1014.85 1015.62 1016.65 1017.87 1019.19 1020.53 1021.82 1023.01 1024.06 1024.98 1025.77 1026.47 1027.10 1027.68 1028.24 1028.79 1029.31 1029.81 1030.27 1030.68 1031.04 1031.35 1031.61 1031.84 1032.02 1032.18 1032.32 1032.43 1032.51 1032.57
1016.05 1016.56 1017.03 1017.37 1017.51 1017.42 1017.09 1016.55 1015.87 1015.17 1014.54 1014.10 1013.92 1014.07 1014.55 1015.37 1016.44 1017.69 1019.04 1020.40 1021.70 1022.89 1023.95 1024.88 1025.69 1026.43 1027.10 1027.73 1028.35 1028.94 1029.50 1030.03 1030.51 1030.94 1031.31 1031.63 1031.89 1032.12 1032.33 1032.51 1032.66 1032.80 1032.90 1032.98
1016.95 1017.41 1017.79 1018.01 1018.01 1017.76 1017.28 1016.59 1015.80 1014.99 1014.29 1013.80 1013.60 1013.74 1014.23 1015.05 1016.12 1017.37 1018.72 1020.07 1021.38 1022.59 1023.68 1024.65 1025.53 1026.33 1027.07 1027.78 1028.45 1029.10 1029.70 1030.25 1030.74 1031.16 1031.53 1031.84 1032.10 1032.34 1032.56 1032.76 1032.94 1033.11 1033.25 1033.35
1017.71 1018.10 1018.37 1018.47 1018.34 1017.96 1017.35 1016.57 1015.70 1014.84 1014.11 1013.60 1013.38 1013.51 1013.98 1014.77 1015.82 1017.04 1018.35 1019.69 1020.99 1022.22 1023.35 1024.38 1025.34 1026.22 1027.05 1027.84 1028.58 1029.28 1029.91 1030.46 1030.95 1031.36 1031.71 1032.00 1032.26 1032.50 1032.73 1032.96 1033.18 1033.38 1033.55 1033.69
1018.19 1018.49 1018.65 1018.63 1018.40 1017.93 1017.25 1016.43 1015.55 1014.70 1014.00 1013.52 1013.33 1013.46 1013.92 1014.68 1015.67 1016.84 1018.10 1019.40 1020.68 1021.92 1023.08 1024.18 1025.21 1026.18 1027.09 1027.96 1028.76 1029.49 1030.13 1030.69 1031.15 1031.54 1031.86 1032.13 1032.38 1032.63 1032.87 1033.13 1033.38 1033.62 1033.83 1033.99
1018.30 1018.49 1018.56 1018.44 1018.13 1017.62 1016.94 1016.16 1015.34 1014.59 1013.98 1013.59 1013.47 1013.65 1014.11 1014.85 1015.79 1016.90 1018.10 1019.34 1020.58 1021.81 1022.99 1024.12 1025.21 1026.25 1027.23 1028.15 1028.98 1029.73 1030.37 1030.91 1031.35 1031.70 1031.99 1032.24 1032.49 1032.73 1032.99 1033.27 1033.55 1033.82 1034.06 1034.25
1018.04 1018.13 1018.10 1017.91 1017.56 1017.06 1016.44 1015.77 1015.10 1014.51 1014.06 1013.82 1013.82 1014.08 1014.58 1015.31 1016.22 1017.26 1018.39 1019.56 1020.76 1021.95 1023.12 1024.27 1025.39 1026.46 1027.47 1028.41 1029.26 1030.00 1030.62 1031.13 1031.53 1031.85 1032.11 1032.34 1032.58 1032.83 1033.10 1033.40 1033.71 1034.00 1034.25 1034.45
1017.48 1017.47 1017.36 1017.12 1016.77 1016.33 1015.83 1015.31 1014.83 1014.46 1014.23 1014.18 1014.34 1014.71 1015.28 1016.02 1016.90 1017.89 1018.96 1020.06 1021.20 1022.35 1023.49 1024.63 1025.74 1026.81 1027.83 1028.76 1029.58 1030.29 1030.88 1031.34 1031.70 1031.98 1032.22 1032.44 1032.67 1032.93 1033.21 1033.53 1033.84 1034.15 1034.40 1034.59
1016.74 1016.65 1016.48 1016.23 1015.91 1015.55 1015.19 1014.86 1014.61 1014.47 1014.47 1014.64 1014.97 1015.47 1016.11 1016.89 1017.76 1018.72 1019.72 1020.77 1021.85 1022.95 1024.06 1025.16 1026.25 1027.30 1028.28 1029.17 1029.95 1030.61 1031.15 1031.56 1031.88 1032.13 1032.34 1032.55 1032.78 1033.04 1033.34 1033.66 1033.98 1034.28 1034.52 1034.70
1015.95 1015.81 1015.61 1015.36 1015.11 1014.86 1014.65 1014.51 1014.48 1014.57 1014.79 1015.15 1015.65 1016.26 1016.99 1017.80 1018.68 1019.61 1020.58 1021.59 1022.63 1023.69 1024.76 1025.83 1026.88 1027.88 1028.81 1029.65 1030.38 1030.98 1031.45 1031.81 1032.09 1032.31 1032.50 1032.70 1032.93 1033.19 1033.49 1033.81 1034.12 1034.41 1034.63 1034.79
1015.22 1015.05 1014.86 1014.66 1014.47 1014.34 1014.29 1014.33 1014.48 1014.76 1015.17 1015.69 1016.31 1017.03 1017.81 1018.66 1019.55 1020.48 1021.44 1022.43 1023.45 1024.48 1025.53 1026.58 1027.59 1028.55 1029.43 1030.21 1030.87 1031.40 1031.82 1032.12 1032.36 1032.55 1032.73 1032.92 1033.14 1033.40 1033.69 1034.00 1034.30 1034.56 1034.76 1034.89
1014.61 1014.46 1014.30 1014.16 1014.07 1014.06 1014.14 1014.33 1014.64 1015.06 1015.60 1016.22 1016.93 1017.71 1018.54 1019.41 1020.32 1021.25 1022.23 1023.23 1024.25 1025.30 1026.35 1027.39 1028.38 1029.31 1030.14 1030.86 1031.45 1031.92 1032.27 1032.52 1032.72 1032.88 1033.04 1033.22 1033.43 1033.69 1033.97 1034.26 1034.53 1034.77 1034.94 1035.04
1014.14 1014.03 1013.93 1013.87 1013.89 1013.99 1014.19 1014.51 1014.93 1015.45 1016.06 1016.75 1017.51 1018.31 1019.16 1020.05 1020.98 1021.94 1022.94 1023.98 1025.05 1026.13 1027.21 1028.25 1029.24 1030.14 1030.93 1031.60 1032.13 1032.54 1032.83 1033.03 1033.18 1033.31 1033.45 1033.62 1033.82 1034.06 1034.32 1034.59 1034.84 1035.04 1035.18 1035.26
Thickness
5557 5550 5546 5550 5552 5555 5555 5553 5554 5559 5560 5555 5553 5557 5561 5563 5563 5564 5565 5565 5564 5562 5561 5560 5559 5558 5557 5556 5555 5554 5553 5552 5552 5551 5550 5549 5548 5548 5547 5545 5545 5546 5545 5545
5546 5541 5547 5549 5550 5548 5545 5542 5543 5547 5550 5545 5546 5549 5558 5560 5559 5560 5561 5560 5558 5555 5553 5550 5549 5549 5548 5547 5546 5545 5544 5543 5543 5542 5541 5540 5539 5537 5536 5535 5535 5535 5535 5534
5538 5540 5543 5541 5537 5536 5535 5532 5534 5532 5535 5537 5533 5539 5551 5558 5558 5558 5557 5556 5553 5549 5543 5540 5538 5536 5537 5537 5536 5537 5535 5535 5534 5534 5533 5532 5530 5528 5526 5525 5525 5524 5524 5524
5531 5534 5532 5529 5527 5526 5523 5529 5526 5522 5515 5518 5525 5519 5546 5553 5551 5550 5548 5546 5543 5540 5537 5533 5529 5527 5526 5525 5526 5526 5526 5525 5525 5524 5524 5523 5521 5519 5518 5516 5515 5515 5515 5514
5522 5523 5520 5518 5517 5516 5514 5517 5515 5514 5508 5506 5515 5508 5532 5545 5542 5542 5540 5538 5535 5532 5528 5524 5521 5518 5517 5516 5516 5516 5516 5515 5515 5515 5515 5514 5512 5510 5509 5507 5506 5506 5505 5504
5512 5513 5510 5510 5509 5508 5505 5504 5504 5503 5497 5490 5511 5505 5520 5533 5540 5539 5535 5530 5525 5521 5518 5514 5511 5508 5507 5506 5506 5505 5505 5505 5504 5504 5504 5504 5502 5501 5499 5498 5497 5496 5495 5495
5502 5502 5500 5499 5495 5496 5494 5485 5480 5479 5479 5491 5512 5506 5515 5531 5533 5532 5526 5521 5516 5512 5507 5504 5500 5498 5497 5496 5495 5495 5495 5494 5494 5494 5494 5494 5493 5492 5490 5489 5488 5487 5486 5485
5488 5489 5491 5487 5486 5482 5482 5481 5471 5469 5479 5491 5496 5497 5513 5520 5519 5520 5516 5512 5507 5502 5498 5494 5492 5489 5487 5486 5485 5485 5484 5483 5484 5483 5482 5482 5483 5482 5481 5479 5478 5478 5477 5476
5482 5482 5484 5481 5479 5477 5473 5471 5476 5465 5454 5457 5484 5498 5505 5508 5506 5504 5502 5499 5495 5491 5487 5484 5482 5479 5478 5476 5475 5474 5473 5473 5472 5472 5471 5471 5470 5470 5469 5468 5468 5467 5466 5465
5470 5462 5469 5469 5467 5465 5465 5467 5455 5450 5447 5454 5484 5494 5495 5492 5491 5491 5488 5485 5483 5481 5476 5473 5471 5469 5467 5465 5464 5463 5462 5461 5460 5460 5459 5459 5458 5458 5457 5456 5456 5455 5454 5453
5457 5447 5449 5453 5450 5454 5451 5448 5448 5448 5449 5451 5459 5481 5493 5489 5485 5478 5475 5473 5471 5468 5464 5462 5460 5458 5456 5454 5452 5451 5450 5449 5448 5447 5446 5445 5445 5445 5444 5443 5443 5443 5442 5442
5446 5440 5438 5446 5449 5448 5447 5446 5441 5433 5435 5444 5449 5465 5478 5475 5473 5468 5463 5461 5458 5455 5452 5451 5449 5446 5444 5442 5440 5439 5438 5437 5436 5435 5434 5433 5431 5431 5430 5430 5430 5429 5429 5429
5434 5426 5422 5433 5433 5431 5431 5436 5435 5430 5429 5429 5431 5453 5462 5460 5458 5455 5451 5448 5445 5442 5440 5438 5436 5434 5432 5431 5429 5428 5427 5426 5424 5423 5421 5420 5419 5417 5417 5417 5416 5416 5416 5416
5429 5416 5416 5426 5435 5427 5420 5423 5423 5418 5413 5420 5433 5447 5451 5449 5444 5441 5438 5436 5433 5431 5429 5426 5423 5421 5420 5419 5418 5417 5416 5414 5413 5411 5409 5408 5406 5405 5404 5403 5403 5403 5402 5402
5414 5405 5405 5412 5418 5419 5418 5418 5416 5412 5417 5417 5433 5439 5448 5441 5436 5431 5428 5424 5422 5420 5418 5414 5412 5409 5407 5406 5406 5405 5404 5402 5401 5399 5397 5396 5394 5393 5392 5391 5390 5390 5390 5390
5402 5397 5394 5395 5405 5404 5404 5412 5414 5413 5414 5416 5423 5431 5437 5432 5426 5420 5416 5414 5412 5410 5407 5404 5402 5399 5397 5396 5395 5393 5392 5390 5389 5387 5385 5384 5382 5381 5380 5379 5378 5377 5377 5377
5388 5384 5385 5391 5391 5386 5389 5411 5413 5412 5414 5414 5416 5424 5421 5415 5411 5407 5403 5401 5399 5397 5394 5391 5388 5387 5385 5383 5382 5380 5379 5378 5376 5374 5373 5371 5369 5368 5367 5366 5365 5364 5364 5364
5381 5378 5376 5376 5372 5375 5416 5420 5417 5411 5411 5408 5408 5408 5406 5399 5393 5390 5389 5386 5383 5382 5380 5377 5375 5374 5372 5371 5369 5367 5365 5364 5362 5361 5359 5358 5356 5355 5354 5352 5352 5351 5351 5351
5379 5374 5372 5370 5371 5385 5406 5407 5402 5397 5397 5394 5391 5389 5387 5384 5379 5377 5376 5373 5370 5368 5366 5364 5362 5361 5359 5358 5356 5354 5352 5350 5349 5347 5346 5344 5343 5341 5340 5339 5339 5338 5338 5338
5366 5365 5365 5367 5368 5370 5399 5394 5392 5388 5380 5384 5380 5376 5372 5371 5368 5367 5362 5358 5355 5353 5351 5350 5349 5347 5346 5344 5343 5341 5338 5336 5335 5335 5333 5332 5330 5329 5328 5327 5326 5326 5325 5325
5353 5355 5358 5363 5363 5373 5378 5374 5378 5371 5377 5372 5369 5365 5361 5355 5353 5350 5346 5343 5340 5338 5337 5336 5334 5333 5332 5331 5329 5327 5325 5323 5322 5321 5319 5318 5317 5316 5315 5314 5313 5312 5312 5311
5353 5351 5352 5356 5357 5365 5360 5359 5361 5362 5359 5356 5354 5350 5345 5340 5337 5333 5331 5328 5326 5324 5323 5322 5320 5318 5317 5316 5315 5313 5311 5310 5308 5306 5305 5304 5304 5303 5303 5301 5300 5299 5298 5298
5349 5353 5351 5351 5356 5353 5347 5346 5343 5344 5342 5340 5337 5333 5329 5326 5322 5319 5316 5314 5313 5311 5310 5307 5305 5303 5302 5301 5300 5299 5298 5295 5294 5292 5291 5290 5290 5290 5290 5289 5288 5286 5285 5284
5338 5340 5340 5337 5339 5336 5333 5331 5329 5328 5325 5323 5320 5317 5315 5311 5308 5306 5304 5301 5298 5297 5295 5292 5290 5288 5287 5286 5285 5284 5283 5281 5279 5278 5278 5278 5277 5277 5277 5276 5275 5274 5273 5272
5329 5324 5324 5323 5325 5320 5320 5318 5315 5312 5310 5307 5304 5302 5299 5297 5295 5292 5289 5287 5284 5283 5280 5278 5276 5275 5274 5273 5271 5269 5268 5266 5265 5264 5264 5264 5264 5264 5264 5264 5262 5262 5262 5261
5315 5312 5315 5324 5319 5314 5313 5307 5302 5297 5295 5292 5289 5286 5284 5282 5280 5278 5276 5274 5271 5268 5266 5264 5262 5261 5260 5259 5257 5256 5255 5253 5251 5251 5251 5251 5251 5251 5251 5251 5251 5250 5250 5251